Notices

What's New in latest Release from April 7th, 2021:

- Updated Glossary, including Speed of Maximum Gust, and Total Hourly Precipitation

- Updated national and regional climate services offices contacts and prices information

- Addition of station inventory lists for 1981-2010, 1971-2000, and 1961-1990 Normals.

If you haven't already, please take our survey and provide feedback about our website: https://eccc.sondage-survey.ca/f/LanguageSelection.aspx?s=442ca660-fcf1-47c0-95a9-59707d6fd709

Hourly Data Report for September 23, 2019

QUALICUM BEACH AIRPORT
BRITISH COLUMBIA
Current Station Operator: ECCC - MSC

49°20'14.000" N
124°23'38.000" W
58.20 m
1026562
71766
VOQ

Download Data

Hourly Data (September 2019)
Hourly Data Report for September 23, 2019
TIME
LST
Temp Definition
°C
Dew Point Definition
°C
Rel Hum Definition
%
Precip. Amount Definition
mm

Wind Dir Definition
10's deg

Wind Spd Definition
km/h
Visibility Definition
km
Stn Press Definition
kPa
Hmdx Definition


Wind Chill Definition


Weather Definition


00:00 9.5 9.0 97 0.0 17 4   100.82     LegendNANA
01:00 9.5 9.1 97 0.0 0 1   100.86     LegendNANA
02:00 9.6 9.1 97 0.0 30 2   100.87     LegendNANA
03:00 9.5 9.0 97 0.0 20 1   100.94     LegendNANA
04:00 9.6 9.1 97 0.0 20 1   100.91     LegendNANA
05:00 9.8 9.2 96 0.0 29 3   101.01     LegendNANA
06:00 9.7 9.1 96 0.0 23 3   101.09     LegendNANA
07:00 10.0 9.3 95 0.6 22 3   101.16     LegendNANA
08:00 10.1 9.6 96 1.4 29 3   101.22     LegendNANA
09:00 10.7 10.2 97 1.1 4 2   101.35     LegendNANA
10:00 10.6 9.5 93 2.0 13 7   101.35     LegendNANA
11:00 10.7 9.4 92 1.0 12 12   101.31     LegendNANA
12:00 11.5 10.5 94 0.2 11 13   101.28     LegendNANA
13:00 12.0 10.8 92 0.0 12 19   101.23     LegendNANA
14:00 12.4 10.8 90 0.0 12 19   101.21     LegendNANA
15:00 13.2 11.4 89 0.0 12 14   101.18     LegendNANA
16:00 12.9 11.3 90 0.0 12 17   101.15     LegendNANA
17:00 12.3 10.6 89 0.0 12 9   101.17     LegendNANA
18:00 12.1 10.2 88 0.0 12 10   101.16     LegendNANA
19:00 12.1 10.1 88 0.0 12 11   101.18     LegendNANA
20:00 12.1 10.6 91 0.0 12 12   101.16     LegendNANA
21:00 12.2 11.1 93 0.0 12 10   101.17     LegendNANA
22:00 12.3 11.4 94 0.0 12 12   101.21     LegendNANA
23:00 12.4 11.6 95 0.0 13 6   101.23     LegendNANA

Notes on Data Quality.

Legend

  • E = Estimated
  • M = Missing
  • NA = Not Available*
  • [empty] = Indicates an unobserved value
Date modified: